Wind_Speed
7 11 13 9 10 8 11 12 14 15 15 16 16 17 17 18 16 16 16 15 16 18 17 16 15 16 16 15 15 15 15 16 16 16 16 16 15 15 15 15 14 13 13
13 14 11 10 9 8 11 12 15 15 15 17 16 18 17 17 18 17 16 15 15 16 16 16 16 16 18 18 17 17 16 15 16 16 16 15 14 15 14 14 14 13 13
14 13 9 7 9 10 13 14 14 15 16 15 17 17 17 17 17 17 17 15 15 15 16 16 17 17 16 17 16 16 17 17 16 16 15 14 14 14 14 14 12 12 13
14 11 10 9 9 11 13 14 14 15 14 15 15 15 15 17 16 16 16 15 14 15 15 16 15 14 13 14 16 16 15 14 14 13 12 12 12 14 13 11 10 11 11
14 11 10 11 9 10 13 15 14 14 13 14 15 14 15 16 15 17 15 14 14 14 15 16 16 15 12 12 12 13 13 13 13 12 11 10 11 11 11 11 10 10 9
13 11 10 10 9 10 13 13 13 13 13 14 14 14 14 14 15 16 15 14 13 13 14 14 15 15 16 14 12 10 11 11 10 10 10 10 9 7 8 8 7 7 6
13 11 9 9 9 9 11 13 12 13 13 12 12 12 12 13 13 14 13 13 12 12 12 13 14 14 13 13 12 10 9 9 8 8 9 9 8 9 8 8 7 7 6
11 9 8 7 8 9 10 12 12 12 12 12 12 12 11 12 13 13 14 13 11 10 11 12 13 13 12 11 11 11 10 9 7 7 8 8 7 7 7 7 7 7 7
9 9 8 7 7 7 10 11 11 12 12 12 13 13 14 14 14 13 13 12 10 9 10 10 10 10 9 8 7 8 8 8 7 6 6 6 6 6 6 6 7 7 7
8 7 7 7 7 9 9 11 11 11 12 12 13 13 14 14 13 14 13 11 11 9 8 7 7 7 7 7 7 6 7 9 7 6 5 4 6 6 5 6 7 7 8
7 6 6 6 7 9 10 9 10 11 12 12 11 12 12 12 12 12 11 11 10 11 9 6 4 3 4 4 4 5 6 4 5 4 4 5 5 5 5 6 7 7 8
8 7 7 6 7 9 9 10 9 9 9 10 11 11 11 11 10 10 10 10 8 8 7 5 3 1 1 2 4 6 4 3 3 3 3 5 5 5 4 6 8 9 9
10 9 7 7 10 9 9 9 8 8 9 9 10 10 9 9 8 7 6 7 6 6 4 3 1 0 3 4 3 3 5 4 3 3 3 5 4 4 4 6 7 8 9
11 10 9 8 9 8 9 8 8 8 9 8 9 9 7 6 6 5 4 6 8 8 6 4 2 3 5 5 4 2 4 5 4 3 2 4 4 4 4 5 6 7 8
12 11 11 10 11 10 11 9 8 9 7 6 7 5 6 5 3 5 6 7 7 7 6 5 5 5 6 7 9 7 6 6 4 3 4 4 3 3 4 5 6 8 8
12 12 12 11 11 12 11 9 8 6 6 6 5 5 4 4 3 4 5 5 6 5 5 4 4 5 8 9 10 11 9 7 6 6 4 3 3 4 6 7 8 9 9
13 13 13 12 13 13 11 9 7 6 6 4 4 4 2 3 3 4 5 5 5 4 4 3 2 5 9 11 10 8 7 6 6 6 5 4 4 5 7 8 9 11 10
14 15 14 13 13 12 11 9 7 4 5 5 5 5 4 4 4 4 5 4 6 6 5 4 6 7 8 9 6 5 3 3 4 5 5 5 6 7 9 10 12 12 12
17 16 15 14 13 13 11 10 7 5 7 5 5 5 5 5 4 4 3 5 6 6 6 5 7 7 7 6 6 4 2 3 4 3 5 6 6 8 9 10 10 10 10
16 16 15 13 12 14 12 10 6 6 6 8 5 6 4 3 3 2 1 3 4 4 6 7 7 6 4 3 4 4 1 1 2 3 4 4 5 7 8 9 9 8 7
15 15 15 14 15 16 16 11 7 7 6 8 7 7 6 3 2 1 3 3 3 3 6 5 5 5 4 5 5 5 3 1 2 4 5 5 5 7 7 7 5 5 5
18 17 15 16 15 15 17 17 10 9 8 8 10 8 7 6 3 2 3 3 2 2 3 4 3 2 3 2 1 2 2 3 2 3 3 5 4 5 5 5 4 5 8
20 20 19 19 18 17 17 18 12 9 10 7 8 9 8 6 5 5 3 4 2 2 1 3 4 2 2 3 1 1 2 1 2 3 5 5 4 4 5 7 7 10 11
23 20 20 21 21 19 17 16 15 11 10 10 9 9 8 8 7 6 5 4 3 3 2 0 3 2 2 2 2 3 2 1 1 2 4 6 8 9 9 9 7 8 6
21 23 22 23 23 19 19 16 16 13 12 10 10 9 9 8 8 7 6 6 5 3 3 2 1 2 2 2 1 1 1 2 1 2 3 4 5 4 3 4 4 5 6
20 19 20 22 25 23 21 18 16 15 14 9 11 10 9 9 8 9 9 8 8 5 4 3 4 3 1 1 2 1 1 1 1 1 2 3 5 4 3 3 6 7 7
Wind_Direction
141 98 112 123 124 112 113 117 114 114 111 114 114 109 108 108 103 98 96 92 88 91 93 89 86 85 84 87 100 98 99 97 95 93 90 90 89 90 90 89 83 86 91
136 123 134 132 118 112 115 114 117 108 113 114 105 106 101 101 96 93 93 89 88 92 91 90 88 85 85 87 91 92 92 93 90 88 89 90 91 89 88 86 87 86 84
131 125 138 126 124 127 117 114 114 114 112 110 105 102 100 99 95 94 93 90 92 88 91 92 89 86 83 88 87 86 84 84 88 88 85 85 86 87 87 84 85 89 84
130 129 132 134 126 115 111 112 112 111 109 103 100 100 99 97 94 95 91 91 91 96 89 86 82 83 87 90 88 85 84 87 90 88 83 86 85 81 85 88 80 86 76
133 131 129 120 118 111 106 113 111 111 104 104 100 100 98 93 94 92 89 91 90 89 81 83 75 76 83 92 86 84 83 88 89 84 84 91 89 82 78 79 71 74 86
137 129 127 118 110 112 112 116 112 110 104 100 102 97 95 93 93 90 91 90 93 89 87 82 77 74 82 84 87 90 83 94 87 86 87 78 79 79 75 78 75 70 64
139 129 125 126 119 118 117 119 118 112 106 103 100 97 96 98 94 90 90 92 90 94 93 88 79 77 89 82 82 83 85 94 84 88 81 79 75 71 67 67 64 59 51
135 126 121 120 125 121 122 122 116 114 109 105 102 100 102 96 93 89 88 89 92 99 101 90 83 82 88 77 74 74 79 92 79 85 78 76 70 57 59 63 63 57 48
137 135 126 132 128 127 131 126 122 115 111 106 100 100 97 95 92 89 85 86 91 97 103 98 88 80 88 74 65 70 66 66 70 74 71 70 63 62 60 61 59 50 40
130 135 137 130 139 139 139 129 130 122 113 103 101 104 103 94 92 96 85 86 88 95 108 103 99 82 82 70 60 50 46 49 55 64 74 83 78 70 58 52 49 40 26
143 147 138 131 137 133 126 129 125 121 111 105 107 106 107 99 98 90 99 93 93 101 108 109 110 82 71 48 45 28 23 32 51 69 88 89 85 74 52 44 39 28 15
167 165 146 141 141 133 132 136 129 132 123 118 109 110 106 101 105 103 101 95 94 110 123 131 136 110 16 8 10 12 25 39 90 90 97 91 86 73 45 28 20 10 0
176 170 162 155 151 141 141 141 134 138 134 126 121 118 116 110 106 104 92 73 82 84 105 126 178 75 3 4 1 21 39 66 97 93 112 97 88 66 28 12 7 360 358
175 174 168 163 150 143 142 142 139 145 144 137 130 121 111 104 89 71 79 67 81 81 89 94 71 37 30 25 25 47 61 71 80 86 98 84 62 43 36 22 6 357 359
175 175 173 167 159 154 155 152 140 140 137 133 133 126 114 95 67 64 81 87 82 81 89 73 63 63 52 52 58 73 89 77 76 76 58 60 49 25 8 5 356 357 359
177 176 174 169 164 159 157 154 150 147 160 157 152 132 115 100 94 76 80 78 71 80 70 47 52 63 64 72 67 79 93 87 75 69 58 43 24 3 356 350 343 344 342
176 173 174 171 169 161 159 160 163 168 161 152 147 138 127 99 112 105 98 83 75 61 53 42 74 105 95 92 85 89 87 82 61 58 53 30 359 352 343 342 335 332 323
174 175 170 169 171 172 172 173 176 181 165 154 160 145 132 115 108 105 120 83 88 53 56 80 121 110 103 104 96 85 82 47 29 22 8 343 320 317 321 329 321 312 309
184 181 180 178 178 174 175 180 188 187 179 182 158 143 127 115 97 108 114 96 77 50 50 81 111 119 117 120 100 81 59 36 23 1 347 335 320 321 320 321 324 328 329
193 191 191 193 196 195 190 186 196 195 184 197 179 165 155 142 106 132 131 110 81 47 48 67 97 114 112 132 139 127 141 307 343 333 318 330 316 315 315 323 337 345 8
196 197 203 205 210 207 204 197 195 187 175 177 192 191 188 197 195 268 210 153 102 66 55 69 90 90 83 127 119 115 105 183 236 265 281 279 295 306 318 333 354 356 3
199 201 202 210 212 198 188 189 187 184 183 184 190 194 195 193 217 234 216 185 147 68 65 58 66 111 73 133 211 162 181 193 221 263 276 278 297 328 333 337 338 335 337
202 198 201 205 206 195 185 189 194 188 194 196 202 193 186 196 203 214 195 205 213 184 56 53 41 99 130 59 98 289 211 256 305 289 274 281 296 296 312 315 308 305 328
205 198 198 204 202 203 200 199 197 196 202 212 201 205 198 201 211 216 205 190 201 216 200 360 26 43 132 154 80 66 93 91 342 278 285 284 273 283 291 314 315 327 336
201 199 199 203 204 204 208 209 208 209 211 217 205 205 202 207 210 215 212 214 210 214 221 227 299 14 44 59 85 208 69 83 173 271 318 330 337 7 20 21 29 44 43
204 200 199 204 208 211 215 220 220 216 214 200 199 206 212 214 219 225 228 227 221 217 224 237 253 275 304 20 16 345 277 324 329 293 299 323 330 21 42 66 54 42 19
Height
832 832 832 833 832 834 833 832 830 831 832 832 833 834 834 836 837 839 839 840 840 840 841 842 842 842 842 843 844 845 847 846 847 847 847 848 849 849 849 851 852 852 852
831 832 831 833 835 834 835 834 834 834 835 835 835 837 837 838 839 841 842 843 843 843 844 844 844 845 844 845 846 847 848 849 849 849 851 851 852 852 852 852 853 854 853
832 834 834 834 835 836 835 835 836 837 838 838 839 840 841 842 842 844 845 846 846 846 847 847 846 847 849 848 849 850 850 851 852 852 853 854 855 854 854 854 855 855 854
833 836 837 837 837 837 837 839 839 840 841 840 841 842 844 845 845 847 847 848 848 848 849 849 849 850 851 851 852 852 853 853 854 854 856 856 857 856 856 856 856 856 856
834 836 837 838 838 837 839 840 841 842 842 842 843 844 846 847 848 849 850 851 851 851 851 852 852 853 853 853 853 854 854 855 855 857 857 858 858 859 857 858 858 858 858
834 836 837 838 839 840 841 842 843 844 844 845 846 847 848 850 850 851 852 853 853 854 854 855 855 855 856 856 856 856 856 857 858 859 859 860 861 860 859 859 859 859 859
835 837 839 840 840 841 842 844 844 845 847 848 849 850 851 852 852 853 854 855 856 856 857 857 856 858 858 858 858 858 858 859 860 861 861 862 862 861 861 860 860 860 859
836 838 840 840 841 842 844 846 847 848 849 850 852 852 852 854 854 855 856 857 858 858 858 858 859 860 860 860 860 860 860 861 862 862 863 864 863 862 862 861 861 860 859
837 839 841 842 843 844 846 847 849 850 851 853 853 854 855 856 857 857 858 859 860 860 860 861 861 861 861 861 861 862 863 863 864 864 865 865 863 863 863 862 861 861 860
838 840 841 843 845 847 848 849 851 852 852 853 855 856 856 858 859 860 861 861 861 862 862 863 862 863 863 863 864 864 864 864 865 865 865 864 863 864 864 863 863 862 861
840 841 843 845 846 848 849 851 852 854 854 856 857 858 859 860 862 863 863 864 864 864 864 864 864 865 865 865 866 866 866 867 866 865 865 864 864 865 865 864 863 863 862
841 842 845 846 848 849 851 852 854 855 857 858 858 860 861 862 863 864 864 865 865 865 865 865 866 866 866 867 868 867 868 866 865 866 866 865 866 866 866 865 865 864 862
841 844 846 847 847 850 852 853 855 857 859 860 860 861 862 863 864 864 865 865 865 865 865 866 866 866 866 867 867 868 867 866 867 867 867 866 866 866 867 866 865 864 863
841 844 846 847 849 851 854 855 857 859 860 861 862 862 863 864 864 864 864 865 865 866 866 866 866 866 866 866 867 867 868 868 868 868 868 868 868 867 866 866 865 864 863
842 845 847 849 850 852 854 855 857 858 861 862 863 863 864 865 865 865 865 865 865 865 866 866 867 866 866 868 868 867 868 868 868 869 870 870 868 868 867 867 865 865 863
842 845 847 850 851 852 855 856 859 861 861 863 864 865 865 866 866 866 866 866 865 865 866 866 866 866 867 869 869 868 868 869 868 870 871 870 869 869 868 867 866 865 864
842 845 848 850 851 854 856 858 860 861 862 864 865 866 866 866 867 867 867 867 866 866 866 866 866 866 868 870 869 869 869 869 870 871 871 870 870 869 868 868 866 865 864
843 845 848 850 852 854 857 859 860 861 863 864 865 866 867 867 868 868 867 868 867 867 866 866 866 867 869 870 870 870 869 870 871 871 871 871 870 869 867 867 866 864 862
842 845 848 850 853 855 857 859 860 862 863 864 866 866 867 868 868 869 869 868 868 867 866 866 866 867 869 870 871 870 870 871 872 872 872 870 870 868 867 866 864 863 861
842 845 848 850 853 855 857 859 860 862 864 865 866 867 868 869 870 869 869 870 869 868 868 868 867 868 869 870 870 871 871 871 872 871 871 870 868 867 866 865 864 863 861
841 844 847 850 852 854 857 860 861 862 864 865 866 867 869 870 870 870 870 870 870 870 870 869 869 869 870 869 870 871 871 870 871 869 869 868 867 866 865 865 864 863 862
838 842 846 848 851 853 855 858 860 861 863 866 866 867 868 870 870 871 871 871 871 871 871 870 870 870 870 869 870 870 869 871 870 868 868 866 867 866 866 865 864 862 861
835 839 844 847 850 852 855 857 859 861 863 865 865 868 868 869 871 871 871 872 872 872 872 871 871 870 871 870 869 870 867 866 868 867 866 866 866 865 864 863 862 861 859
831 837 842 846 849 852 854 856 858 860 862 864 866 867 868 869 870 871 872 872 872 872 872 872 872 871 870 870 871 870 868 869 868 865 865 864 864 863 863 862 862 860 858
830 834 839 844 848 851 853 854 858 859 862 864 864 865 868 869 870 871 872 871 871 872 872 872 872 872 871 871 870 870 870 870 869 868 863 863 863 862 862 862 862 860 858
828 832 837 841 844 848 851 853 855 857 859 861 863 865 866 868 869 869 870 870 871 871 871 871 872 872 871 871 870 870 870 870 869 869 867 865 865 864 863 862 862 860 859